Hourly Weather Shillong

Today, 1 August, Sunday

Time Temperature Precipitation Wind Pressure Humidity
00:00 +20°C° 0 mm 1 mps 630 mmHg 98%
01:00 +19°C° 0.6 mm 1 mps 629 mmHg 98%
02:00 +19°C° 0.6 mm 1 mps 629 mmHg 98%
03:00 +19°C° 0.6 mm 1 mps 628 mmHg 98%
04:00 +19°C° 0.4 mm 1 mps 628 mmHg 98%
05:00 +20°C° 0.4 mm 1 mps 628 mmHg 98%
06:00 +20°C° 0 mm 1 mps 628 mmHg 98%
07:00 +20°C° 0.6 mm 1 mps 629 mmHg 97%
08:00 +21°C° 0.6 mm 1 mps 629 mmHg 97%
09:00 +21°C° 0.6 mm 1 mps 629 mmHg 96%
10:00 +21°C° 1 mm 1 mps 629 mmHg 95%
11:00 +22°C° 1 mm 1 mps 629 mmHg 94%
12:00 +22°C° 0 mm 1 mps 629 mmHg 93%
13:00 +22°C° 0.7 mm 1 mps 629 mmHg 92%
14:00 +23°C° 0.7 mm 1 mps 628 mmHg 91%
15:00 +23°C° 0.7 mm 1 mps 628 mmHg 90%
16:00 +22°C° 1.1 mm 1 mps 628 mmHg 92%
17:00 +22°C° 1.1 mm 1 mps 627 mmHg 93%
18:00 +21°C° 0 mm 1 mps 627 mmHg 95%
19:00 +21°C° 0.5 mm 1 mps 628 mmHg 96%
20:00 +20°C° 0.5 mm 1 mps 628 mmHg 96%
21:00 +20°C° 0.5 mm 1 mps 629 mmHg 97%
22:00 +20°C° 0.6 mm 1 mps 629 mmHg 97%
23:00 +20°C° 0.6 mm 1 mps 629 mmHg 97%

Tomorrow, 2 August, Monday

Time Temperature Precipitation Wind Pressure Humidity
00:00 +20°C° 0.6 mm 1 mps 629 mmHg 98%
01:00 +19°C° 0.6 mm 1 mps 629 mmHg 97%
02:00 +19°C° 0.6 mm 1 mps 628 mmHg 97%
03:00 +19°C° 0.6 mm 1 mps 628 mmHg 97%
04:00 +19°C° 0.4 mm 1 mps 628 mmHg 97%
05:00 +19°C° 0.4 mm 1 mps 628 mmHg 97%
06:00 +19°C° 0.4 mm 1 mps 628 mmHg 97%
07:00 +20°C° 0.4 mm 1 mps 629 mmHg 96%
08:00 +20°C° 0.4 mm 1 mps 629 mmHg 96%
09:00 +21°C° 0.4 mm 1 mps 629 mmHg 95%
10:00 +21°C° 0.8 mm 1 mps 629 mmHg 95%
11:00 +21°C° 0.8 mm 1 mps 629 mmHg 95%
12:00 +21°C° 0.8 mm 1 mps 629 mmHg 95%
13:00 +22°C° 0.5 mm 1 mps 629 mmHg 92%
14:00 +22°C° 0.5 mm 1 mps 629 mmHg 90%
15:00 +23°C° 0.5 mm 1 mps 628 mmHg 87%
16:00 +22°C° 0.5 mm 1 mps 628 mmHg 90%
17:00 +22°C° 0.5 mm 1 mps 628 mmHg 92%
18:00 +21°C° 0.5 mm 1 mps 628 mmHg 95%
19:00 +21°C° 0.3 mm 1 mps 628 mmHg 95%
20:00 +21°C° 0.3 mm 1 mps 629 mmHg 96%
21:00 +20°C° 0.3 mm 1 mps 629 mmHg 96%
22:00 +20°C° 0.2 mm 1 mps 629 mmHg 96%
23:00 +20°C° 0.2 mm 1 mps 629 mmHg 96%

Day after tomorrow, 3 August, Tuesday

Time Temperature Precipitation Wind Pressure Humidity
00:00 +20°C° 0.2 mm 1 mps 629 mmHg 96%
01:00 +20°C° 0.3 mm 1 mps 629 mmHg 97%
02:00 +19°C° 0.3 mm 1 mps 629 mmHg 97%
03:00 +19°C° 0.3 mm 1 mps 628 mmHg 97%
04:00 +19°C° 0.2 mm 1 mps 629 mmHg 97%
05:00 +19°C° 0.2 mm 1 mps 629 mmHg 97%
06:00 +17°C° 0.2 mm 0 mps 629 mmHg 96%
07:00 +18°C° 0.2 mm 0 mps 629 mmHg 94%
08:00 +19°C° 0.2 mm 0 mps 630 mmHg 93%
09:00 +20°C° 0.2 mm 0 mps 630 mmHg 91%
10:00 +20°C° 0.8 mm 0 mps 630 mmHg 90%
11:00 +20°C° 0.8 mm 0 mps 630 mmHg 90%
12:00 +23°C° 0.8 mm 1 mps 630 mmHg 89%
13:00 +21°C° 0.9 mm 0 mps 629 mmHg 90%
14:00 +21°C° 0.9 mm 0 mps 629 mmHg 91%
15:00 +21°C° 0.9 mm 0 mps 629 mmHg 91%
16:00 +20°C° 0.7 mm 0 mps 629 mmHg 93%
17:00 +20°C° 0.7 mm 0 mps 629 mmHg 95%
18:00 +20°C° 0.7 mm 0 mps 629 mmHg 96%
19:00 +21°C° 0.7 mm 1 mps 629 mmHg 97%
20:00 +21°C° 0.7 mm 1 mps 629 mmHg 97%
21:00 +20°C° 0.7 mm 1 mps 630 mmHg 97%
22:00 +20°C° 0.6 mm 1 mps 630 mmHg 98%
23:00 +20°C° 0.6 mm 1 mps 630 mmHg 98%

4 August, Wednesday

Time Temperature Precipitation Wind Pressure Humidity
00:00 +20°C° 0.6 mm 1 mps 630 mmHg 98%
01:00 +20°C° 0.4 mm 1 mps 629 mmHg 98%
02:00 +20°C° 0.4 mm 1 mps 629 mmHg 98%
03:00 +20°C° 0.4 mm 1 mps 629 mmHg 98%
04:00 +20°C° 0.4 mm 1 mps 629 mmHg 98%
05:00 +18°C° 0.4 mm 0 mps 630 mmHg 98%
06:00 +18°C° 0.4 mm 0 mps 630 mmHg 98%
07:00 +21°C° 0.1 mm 1 mps 630 mmHg 94%
08:00 +22°C° 0.1 mm 1 mps 631 mmHg 91%
09:00 +22°C° 0.1 mm 1 mps 631 mmHg 87%
10:00 +24°C° 0.3 mm 1 mps 631 mmHg 81%
11:00 +25°C° 0.3 mm 1 mps 631 mmHg 75%
12:00 +26°C° 0.3 mm 1 mps 631 mmHg 69%
13:00 +26°C° 1 mm 1 mps 631 mmHg 74%
14:00 +25°C° 1 mm 1 mps 630 mmHg 80%
15:00 +24°C° 1 mm 1 mps 630 mmHg 85%
16:00 +24°C° 0.3 mm 1 mps 629 mmHg 88%
17:00 +21°C° 0.3 mm 0 mps 629 mmHg 91%
18:00 +21°C° 0.3 mm 0 mps 629 mmHg 93%
19:00 +22°C° 0.2 mm 1 mps 629 mmHg 94%
20:00 +21°C° 0.2 mm 1 mps 629 mmHg 95%
21:00 +20°C° 0.2 mm 1 mps 630 mmHg 96%
22:00 +20°C° 0.2 mm 1 mps 629 mmHg 96%
23:00 +20°C° 0.2 mm 1 mps 629 mmHg 96%

5 August, Thursday

Time Temperature Precipitation Wind Pressure Humidity
00:00 +19°C° 0.2 mm 1 mps 629 mmHg 96%
01:00 +19°C° 0.5 mm 1 mps 629 mmHg 96%
02:00 +19°C° 0.5 mm 1 mps 629 mmHg 96%
03:00 +19°C° 0.5 mm 1 mps 628 mmHg 96%
04:00 +19°C° 0.1 mm 1 mps 628 mmHg 96%
05:00 +17°C° 0.1 mm 0 mps 629 mmHg 95%
06:00 +17°C° 0.1 mm 0 mps 629 mmHg 94%
07:00 +21°C° 0 mm 1 mps 629 mmHg 87%
08:00 +23°C° 0 mm 1 mps 630 mmHg 80%
09:00 +25°C° 0 mm 1 mps 631 mmHg 73%
10:00 +25°C° 0.6 mm 1 mps 630 mmHg 75%
11:00 +25°C° 0.6 mm 1 mps 630 mmHg 78%
12:00 +25°C° 0.6 mm 1 mps 630 mmHg 80%
13:00 +25°C° 1.3 mm 1 mps 630 mmHg 81%
14:00 +25°C° 1.3 mm 1 mps 629 mmHg 81%
15:00 +23°C° 1.3 mm 0 mps 629 mmHg 82%
16:00 +22°C° 1.3 mm 0 mps 629 mmHg 86%
17:00 +21°C° 1.3 mm 0 mps 628 mmHg 91%
18:00 +20°C° 1.3 mm 0 mps 628 mmHg 95%
19:00 +22°C° 1.5 mm 1 mps 628 mmHg 95%
20:00 +21°C° 1.5 mm 1 mps 629 mmHg 95%
21:00 +20°C° 1.5 mm 1 mps 629 mmHg 96%
22:00 +20°C° 0.5 mm 1 mps 629 mmHg 96%
23:00 +20°C° 0.5 mm 1 mps 629 mmHg 96%

6 August, Friday

Time Temperature Precipitation Wind Pressure Humidity
00:00 +20°C° 0.5 mm 1 mps 629 mmHg 95%
01:00 +19°C° 0.8 mm 1 mps 628 mmHg 95%
02:00 +19°C° 0.8 mm 1 mps 628 mmHg 95%
03:00 +19°C° 0.8 mm 1 mps 628 mmHg 95%
04:00 +19°C° 0.5 mm 1 mps 628 mmHg 95%
05:00 +19°C° 0.5 mm 1 mps 628 mmHg 95%
06:00 +19°C° 0.5 mm 1 mps 628 mmHg 95%
07:00 +19°C° 0.4 mm 0 mps 629 mmHg 92%
08:00 +20°C° 0.4 mm 0 mps 630 mmHg 89%
09:00 +21°C° 0.4 mm 0 mps 630 mmHg 86%
10:00 +21°C° 1 mm 0 mps 630 mmHg 84%
11:00 +22°C° 1 mm 0 mps 630 mmHg 82%
12:00 +23°C° 1 mm 0 mps 630 mmHg 80%
13:00 +23°C° 1.3 mm 0 mps 630 mmHg 81%
14:00 +25°C° 1.3 mm 1 mps 629 mmHg 82%
15:00 +25°C° 1.3 mm 1 mps 629 mmHg 84%
16:00 +24°C° 1.2 mm 1 mps 628 mmHg 88%
17:00 +23°C° 1.2 mm 1 mps 628 mmHg 91%
18:00 +22°C° 1.2 mm 1 mps 628 mmHg 95%
19:00 +22°C° 0.5 mm 1 mps 628 mmHg 95%
20:00 +21°C° 0.5 mm 1 mps 629 mmHg 96%
21:00 +20°C° 0.5 mm 1 mps 629 mmHg 96%
22:00 +20°C° 0.4 mm 1 mps 629 mmHg 96%
23:00 +20°C° 0.4 mm 1 mps 629 mmHg 96%
Show more